Location: Arnolds Mill
(42.3415°N, 73.5951°W)
Time: 10:16:07
(UTC+00:00)

BlueWalker 3 - Pass Details

Date: 24 June 2024
Orbit: 480 x 492 km, 53.2° (Epoch: 13 July)

Event Time Altitude Azimuth Distance (km) Brightness Sun altitude
Rises 03:37:33 0° 301° (WNW) 2,541 6.3 -21.8°
Reaches altitude 10° 03:40:26 10° 325° (NW) 1,660 5.6 -21.9°
Maximum altitude 03:42:44 15° 3° (N) 1,356 5.0 -22.1°
Drops below altitude 10° 03:45:02 10° 41° (NE) 1,658 4.9 -22.2°
Sets 03:47:55 0° 65° (ENE) 2,537 5.6 -22.4°
